Hourly Data Report for July 07, 2017

CAPE RACE (AUT)
NEWFOUNDLAND

46°39'36.000" N
53°04'35.000" W
26.50 m
8401000
71800
WRA

Download Data

Hourly Data (July 2017)
Hourly Data Report for July 7, 2017
TIME
LST
Temp Definition
°C
Dew Point Definition
°C
Rel Hum Definition
%
Precip. Amount Definition
mm

Wind Dir Definition
10's deg

Wind Spd Definition
km/h
Visibility Definition
km
Stn Press Definition
kPa
Hmdx Definition


Wind Chill Definition


Weather Definition


00:30 5.6 LegendMM 100 0.0 23 21   101.98     LegendNANA
01:30 5.9 LegendMM 100 0.0 22 19   101.97     LegendNANA
02:30 7.7 LegendMM 100 0.0 23 24   102.01     LegendNANA
03:30 6.6 LegendMM 100 0.0 23 26   102.04     LegendNANA
04:30 7.3 LegendMM 100 0.0 22 21   102.03     LegendNANA
05:30 7.9 LegendMM 100 0.0 23 21   102.04     LegendNANA
06:30 9.0 LegendMM 100 0.0 22 20   102.05     LegendNANA
07:30 9.7 LegendMM 100 0.0 22 21   102.02     LegendNANA
08:30 9.2 LegendMM 100 0.0 21 18   101.98     LegendNANA
09:30 8.9 8.9 100 0.0 20 16   101.99     LegendNANA
10:30 9.6 9.4 99 0.0 20 25   101.96     LegendNANA
11:30 9.8 8.7 93 0.0 21 24   101.92     LegendNANA
12:30 10.2 8.7 90 0.0 21 21   101.90     LegendNANA
13:30 10.5 8.7 89 0.0 20 20   101.83     LegendNANA
14:30 10.8 9.0 89 0.0 19 23   101.80     LegendNANA
15:30 10.1 8.7 91 0.0 21 17   101.84     LegendNANA
16:30 10.2 9.3 94 0.0 20 15   101.79     LegendNANA
17:30 9.3 9.0 98 0.0 21 20   101.81     LegendNANA
18:30 9.1 9.0 99 0.0 21 17   101.80     LegendNANA
19:30 9.8 9.7 100 0.0 19 14   101.79     LegendNANA
20:30 9.8 9.7 100 0.0 18 11   101.80     LegendNANA
21:30 9.6 9.6 100 0.0 16 6   101.78     LegendNANA
22:30 9.7 9.7 100 0.0 17 5   101.76     LegendNANA
23:30 10.2 LegendMM 100 0.0 0 1   101.69     LegendNANA

Notes on Data Quality.

Legend

  • E = Estimated
  • M = Missing
  • NA = Not Available*
  • [empty] = Indicates an unobserved value
Date modified: